Location: Christianberg
(48.9086°N, 14.0209°E)
Time: 05:59:31
(UTC+00:00)

Daily predictions for brighter satellites

Satellite Brightness Start Highest point End
(mag) Time Altitude Azimuth Time Altitude Azimuth Time Altitude Azimuth
Cosmos 1825 2.1 00:13:02 35° SSW 00:14:32 84° W 00:18:20 10° N
ATLAS CENTAUR R/B 4.5 00:08:39 10° WSW 00:15:13 69° NNW 00:33:29 10° ENE
Cosmos 540 Rocket 3.6 00:15:11 26° S 00:18:02 63° ESE 00:23:05 10° NNE
DELTA 2 R/B (1) 4.5 00:16:57 25° S 00:18:03 27° SSE 00:22:41 10° ESE
Cosmos 990 Rocket 4.5 00:15:15 10° NW 00:20:09 43° WSW 00:22:37 26° SSW
Cosmos 1408 3.4 00:19:18 27° SW 00:20:44 39° WNW 00:24:15 10° N
NOSS 2-2 (E) 4.4 00:20:41 22° SSE 00:21:43 26° ESE 00:24:51 10° ENE
Cosmos 1437 3.9 00:20:17 10° N 00:22:52 32° ENE 00:24:28 18° SE
Cosmos 1242 Rocket 2.7 00:20:29 10° N 00:24:05 69° ENE 00:26:09 24° SSE
SL-16 R/B 3.5 00:19:56 10° WSW 00:25:00 34° NW 00:30:09 10° NNE
Cosmos 405 Rocket 2.9 00:23:36 30° SW 00:25:07 54° WNW 00:28:46 10° N
Cosmos 2221 2.4 00:21:40 10° NNW 00:25:58 81° W 00:28:23 25° S
Cosmos 841 Rocket 3.6 00:23:03 24° S 00:26:04 64° ESE 00:31:10 10° NNE
Cosmos 1656 Rocket 3.7 00:20:24 10° NNW 00:26:04 66° WSW 00:30:16 18° S
Cosmos 2058 2.8 00:24:22 29° SSW 00:26:22 84° W 00:30:29 10° N
USA 229 DEB 3.7 00:22:35 17° SW 00:27:43 75° NW 00:34:41 10° NE
USA 229 3.7 00:22:43 17° SW 00:27:48 76° NW 00:34:47 10° NE
X-37B 1.0 00:28:47 40° SSW 00:29:00 40° S 00:32:01 10° ESE
Cosmos 1898 Rocket 4.0 00:28:32 10° NW 00:33:27 42° WSW 00:36:10 23° SSW
Cosmos 1937 Rocket 3.7 00:28:37 10° NNW 00:33:51 57° WSW 00:37:18 21° S
Nadezhda 4 Rocket 3.9 00:30:48 22° SSW 00:34:58 83° W 00:41:08 10° N
NOSS 2-2 (C) 4.4 00:34:05 21° SSE 00:35:21 27° ESE 00:38:30 10° ENE
Cosmos 2369 Rocket 2.9 00:30:47 10° NW 00:36:00 37° WSW 00:38:58 22° SSW
NOSS 3-1 (C) 4.2 00:31:16 10° WSW 00:36:39 48° NW 00:43:04 10° NE
Aureole 3 Rocket 3.2 00:33:51 10° N 00:37:41 75° E 00:41:59 15° SSE
SJ 16-02 3.6 00:38:10 10° W 00:39:04 11° W 00:39:59 10° WSW
USA 307 3.8 00:38:07 24° S 00:39:48 34° SE 00:43:40 10° ENE
FALCON 9 DEB 4.0 00:37:46 10° WNW 00:40:49 47° NNE 00:43:51 10° E
CREW DRAGON DEMO-1 DEB 2.5 00:40:05 29° W 00:41:07 64° NNW 00:43:34 10° ENE
ARGOS Delta rocket 4.2 00:37:22 10° NNE 00:42:54 81° E 00:46:49 20° S
USA 215 4.2 00:37:51 10° ENE 00:44:03 48° NNW 00:50:17 10° W
NOSS 3-1 (A) 3.7 00:42:41 14° WSW 00:47:24 61° NW 00:53:55 10° NE
ATLAS 5 CENTAUR R/B 2.1 00:48:04 22° S 00:50:11 41° ESE 00:54:19 10° NE
CZ-4 R/B 4.3 00:46:00 10° N 00:50:30 49° WNW 00:53:33 20° SW
Helios 1B rocket 2.8 00:47:17 10° NNE 00:51:21 59° ESE 00:54:08 19° S
Cosmos 1633 2.4 00:53:22 24° S 00:55:22 83° E 00:58:55 10° N
ADEOS Rocket 3.6 00:48:13 10° SSE 00:55:24 69° ENE 01:01:54 10° N
Cosmos 1814 Rocket 4.0 00:51:52 20° SSW 00:55:29 77° ESE 01:00:40 10° NNE
USA 308 3.4 00:53:26 23° SSW 00:55:39 43° SE 00:59:42 10° ENE
FALCON 9 DEB 3.2 00:54:51 10° WNW 00:57:57 65° NNE 01:01:00 10° ESE
UNK 3.7 00:54:25 16° S 00:58:06 74° WSW 01:02:45 10° NNW
CZ-3B R/B 3.2 00:50:21 10° WNW 00:58:28 50° N 01:01:21 10° E
Helios 1A 4.2 01:00:06 19° SW 01:01:54 26° W 01:05:27 10° NW
Cosmos 1606 3.0 00:58:17 10° NNW 01:02:00 48° W 01:04:12 21° SSW
Cosmos 2150 Rocket 4.4 00:58:14 10° NNW 01:03:26 67° ENE 01:08:39 10° SSE
FALCON 9 DEB 3.4 01:01:37 10° WNW 01:04:44 61° NNE 01:07:48 10° E
SL-16 R/B 2.6 00:59:52 13° S 01:05:26 64° WSW 01:11:35 10° NNW
Cosmos 1570 Rocket 4.0 01:01:44 19° SSW 01:05:33 90° WNW 01:10:50 10° NNE
Cosmos 1933 3.6 01:03:25 10° N 01:07:31 70° E 01:11:36 10° SSE
FALCON 9 DEB 3.1 01:05:06 10° WNW 01:08:12 72° NNE 01:11:17 10° ESE
Cosmos 372 Rocket 4.3 01:03:44 10° NNW 01:08:48 49° WSW 01:13:11 14° S
Cosmos 1125 Rocket 4.0 01:06:17 10° NNW 01:11:32 65° ENE 01:16:46 10° SE
USA 290 2.1 01:11:15 23° SSW 01:13:09 87° WNW 01:16:23 10° NNE
USA 305 3.0 01:10:32 19° SW 01:13:26 60° SE 01:17:38 10° ENE
Lacrosse 4 Rocket 1.4 01:11:18 10° NW 01:15:21 58° WSW 01:19:19 10° SSE
Meteor 1-28 Rocket 3.9 01:11:57 10° SSE 01:15:40 56° ENE 01:19:24 10° N
CZ-4C R/B 4.1 01:12:42 10° SSE 01:15:54 17° ESE 01:19:26 10° ENE
Cosmos 1092 Rocket 4.0 01:11:05 16° SSW 01:16:02 69° WNW 01:22:12 10° N
Cosmos 1151 Rocket 4.0 01:12:43 10° N 01:16:51 46° ENE 01:20:56 10° SSE
Cosmos 2098 Rocket 4.2 01:15:08 16° SW 01:18:55 38° WNW 01:23:02 10° N
CENTAUR R/B 4.2 01:12:01 10° NW 01:19:33 50° NE 01:28:00 10° ESE
Resurs 1-4 Rocket 2.4 01:14:49 10° N 01:20:04 61° WNW 01:24:23 15° SSW
BREEZE-M R/B 3.1 01:18:12 17° SW 01:20:37 48° SSE 01:26:17 10° ENE
Cosmos 2208 Rocket 4.1 01:16:33 16° SSW 01:20:54 84° WNW 01:26:25 10° NNE
NOSS 5 (C) 4.2 01:18:33 10° NW 01:21:37 69° SW 01:25:17 10° SSE
Meteor 1-29 3.1 01:20:45 10° NNE 01:24:11 71° ESE 01:26:57 15° S
OE (NEXTSAT) 4.4 01:22:34 11° WSW 01:25:48 52° S 01:29:09 10° ESE
Cosmos 1766 Rocket 4.5 01:22:32 10° SSE 01:26:47 46° E 01:31:05 10° NNE
SL-4 R/B 2.2 01:23:35 10° WNW 01:27:17 62° NNE 01:30:44 10° E
MINOTAUR 4 R/B 4.1 01:26:32 13° S 01:29:38 57° WSW 01:33:08 10° NNW
Landsat 4 3.8 01:26:12 10° NNE 01:30:02 76° ESE 01:33:22 13° S
NPP 3.9 01:25:55 10° N 01:31:15 62° WNW 01:35:57 13° SSW
ADEOS II 2.1 01:26:28 10° NNE 01:31:46 86° ESE 01:36:49 11° SSW
NOSS 2-2 (D) 3.0 01:30:21 16° SW 01:33:00 81° NW 01:36:49 10° NE
USA 306 2.9 01:32:05 13° SW 01:35:49 80° SSE 01:40:04 10° ENE
Cosmos 921 Rocket 3.9 01:32:38 13° SW 01:35:56 35° WNW 01:39:49 10° N
Lacrosse 5 rocket 2.2 01:32:32 10° NW 01:36:02 47° NNE 01:39:36 10° ESE
Meteor 2-3 Rocket 3.7 01:31:29 11° S 01:36:52 89° W 01:42:29 10° NNE
Okean 3 Rocket 4.1 01:33:06 10° S 01:37:23 57° E 01:41:42 10° NNE
FALCON 9 DEB 3.9 01:34:29 10° W 01:37:28 28° SW 01:40:25 10° SSE
CZ-2D R/B 2.7 01:33:46 10° N 01:38:42 44° WNW 01:43:15 12° SW
Cosmos 1943 4.3 01:33:39 10° WSW 01:38:45 34° NW 01:43:55 10° NNE
IRIDIUM 106 4.3 01:34:47 10° N 01:40:02 83° W 01:45:15 10° S
Alouette 2 Rocket 3.3 01:36:59 10° NNW 01:40:33 79° ENE 01:44:38 10° SSE
ASTEX 1 3.7 01:40:46 10° SSE 01:45:40 70° E 01:50:35 10° N
IDEFIX/ARIANE 42P 2.9 01:40:57 10° NNE 01:46:11 65° ESE 01:51:22 10° S
Cosmos 2151 3.6 01:44:56 13° SW 01:48:29 42° WNW 01:52:30 10° N
AQUA 4.4 01:46:17 10° N 01:50:51 46° WNW 01:55:17 11° SW
EXPRESS MD2 4.2 01:43:39 10° WSW 01:52:21 83° SSE 01:56:29 10° ENE
Meteor 1-26 Rocket 4.5 01:49:31 10° NNW 01:55:15 60° W 02:01:07 10° S
DELTA 2 R/B (1) 4.4 01:58:52 10° WSW 02:03:40 31° S 02:08:29 10° SE
Cosmos 1656 3.9 01:58:26 10° NNW 02:04:12 79° ENE 02:09:53 10° SSE
X-37B 1.7 02:02:35 10° WSW 02:05:16 25° SSW 02:07:56 10° SE
CBERS-1 4.1 02:00:19 10° NNE 02:05:28 79° WNW 02:10:36 10° SSW
IRS-1D 3.7 02:00:35 10° N 02:05:41 64° WNW 02:10:40 10° SSW
BREEZE-M DEB (TANK) 1.3 02:05:05 10° W 02:07:20 57° SSW 02:10:06 10° ESE
IRS-1C 4.4 02:04:29 10° NNE 02:09:50 69° ESE 02:15:09 10° S
Cosmos 1812 2.7 02:06:00 10° N 02:09:52 86° W 02:13:41 10° S
Cosmos 1553 Rocket 4.4 02:03:57 10° NNW 02:09:58 48° W 02:15:52 10° SSW
NOSS 2-2 (E) 4.5 02:08:53 10° WSW 02:12:06 33° NW 02:15:49 10° NNE
Cosmos 2292 Rocket 3.8 02:10:01 10° SW 02:12:40 28° WNW 02:15:20 10° NNW
SL-08 R/B 3.6 02:08:33 10° SSE 02:13:12 75° ENE 02:17:59 10° NNW
CZ-2C R/B 4.1 02:09:47 10° NNE 02:14:13 31° E 02:18:29 10° SSE
CREW DRAGON DEMO-1 DEB 3.6 02:12:39 10° WNW 02:15:00 40° N 02:17:21 10° ENE
Cosmos 1697 Rocket 3.6 02:10:03 10° NNW 02:15:37 55° NE 02:21:10 10° SE
S3M 4.1 02:10:04 10° NNW 02:16:07 62° W 02:22:14 10° S
FALCON 9 DEB 3.1 02:13:31 10° WNW 02:16:33 45° SSW 02:19:33 10° SE
Cosmos 1782 3.6 02:12:59 10° NNW 02:16:39 35° W 02:20:19 10° SSW
USA 281 3.3 02:11:07 10° SSE 02:17:36 61° WSW 02:24:08 10° NNW
MSX 3.9 02:12:44 10° NNE 02:18:33 86° ESE 02:24:18 10° SSW
Cosmos 1271 Rocket 3.0 02:15:06 10° NNW 02:18:42 47° W 02:22:18 10° S
USA 307 3.2 02:15:22 10° WSW 02:19:35 67° NNW 02:23:51 10° ENE
